Regional Weather Roundup
Issued by NWS

Home | Current Version | Previous Version | Graphics & Text | Print | Product List | Glossary On
Versions: 1 2 3 4 5 6 7 8 9 10 11 12 13 14 15 16 17 18 19 20 21 22 23 24 25 26 27 28 29 30 31 32 33 34 35 36 37 38 39 40 41 42 43 44 45 46 47 48 49 50
000
ASUS43 KMKX 211010
RWRWI

WISCONSIN REGIONAL WEATHER ROUNDUP
NATIONAL WEATHER SERVICE MILWAUKEE/SULLIVAN WI
500 AM CDT SAT APR 21 2018

NOTE: "FAIR" INDICATES FEW OR NO CLOUDS BELOW 12,000 FEET WITH NO
SIGNIFICANT WEATHER AND/OR OBSTRUCTIONS TO VISIBILITY.

WIZ001-002-006>008-014>016-023>028-211100-
NORTHWEST WISCONSIN

CITY           SKY/WX    TMP DP  RH WIND       PRES   REMARKS
SUPERIOR ARPT  FAIR      30  20  68 S3        30.41S
ASHLAND        FAIR      26  19  74 SW6       30.41S WCI  19
HAYWARD        FAIR      26  22  84 CALM      30.41S
SIREN          FAIR      27  21  77 CALM      30.42R
CUMBERLAND     FAIR      28  21  74 CALM      30.41R
RICE LAKE      FAIR      29  25  85 CALM      30.43R
CHETEK         FAIR      28  24  84 CALM      30.42S
LADYSMITH      FAIR      30  24  76 CALM      30.43S
EAU CLAIRE     FAIR      31  25  78 CALM      30.41S
MENOMONIE      FAIR      34  27  75 CALM      30.42F
NEW RICHMOND   FAIR      31  27  83 CALM      30.42S
OSCEOLA        FAIR      32  28  84 CALM      30.45S
$$

WIZ003>005-009-010-017-018-211100-
NORTH CENTRAL WISCONSIN

CITY           SKY/WX    TMP DP  RH WIND       PRES   REMARKS
MANITOWISH WTR FAIR      24  21  89 CALM      30.39S
ARBOR VITAE    FAIR      29  20  68 CALM      30.39F
WOODRUFF       FAIR      29  20  68 CALM      30.39F
RHINELANDER    FAIR      28  20  71 CALM      30.40F
EAGLE RIVER    FAIR      27  20  73 CALM      30.39F
LAND O LAKES   FAIR      23  19  84 CALM      30.41S
PHILLIPS       FAIR      26  22  83 CALM      30.39F
TOMAHAWK       FAIR      26  20  79 CALM      30.41F
MEDFORD        FAIR      29  21  71 CALM      30.40S
MERRILL        FAIR      26  22  85 CALM      30.42F
$$

WIZ029-030-035-036-043>047-211100-
CENTRAL WISCONSIN

CITY           SKY/WX    TMP DP  RH WIND       PRES   REMARKS
WAUSAU         FAIR      28  22  78 CALM      30.40S
MOSINEE        FAIR      32  19  59 NE5       30.42S WCI  27
MARSHFIELD     FAIR      35  22  58 CALM      30.40R
STEVENS POINT  FAIR      27  20  75 CALM      30.43R
WAUPACA        FAIR      32  26  77 CALM      30.43S
WAUTOMA        NOT AVBL
WISC RAPIDS    FAIR      30  21  69 N3        30.43R
CAMP DOUGLAS   MOCLDY    29  24  82 CALM      30.41S
$$

WIZ011>013-019>022-031-037>040-048>050-211100-
NORTHEAST WISCONSIN

CITY           SKY/WX    TMP DP  RH WIND       PRES   REMARKS
ANTIGO         FAIR      29  26  88 NE3       30.41S
SHAWANO        FAIR      30  23  74 CALM      30.42F
OCONTO         FAIR      26  21  82 CALM      30.42F
STURGEON BAY   FAIR      40  20  44 SW5       30.43F
GREEN BAY      FAIR      30  24  78 CALM      30.43S
MANITOWOC      FAIR      30  26  85 CALM      30.44F
APPLETON       FAIR      36  19  51 CALM      30.41S
CLINTONVILLE   FAIR      28  20  72 CALM      30.43S
OSHKOSH        FAIR      34  22  61 CALM      30.42F
$$

WIZ032>034-041-042-053>061-211100-
SOUTHWEST WISCONSIN

CITY           SKY/WX    TMP DP  RH WIND       PRES   REMARKS
LA CROSSE      FAIR      36  29  75 E3        30.42S
SPARTA         FAIR      28  24  86 CALM      30.43S
VIROQUA        FAIR      39  26  59 E7        30.40S WCI  34
BOSCOBEL       MOCLDY    37  31  78 CALM      30.43S
PRAIRIE DU CHI CLOUDY    38  32  80 CALM      30.42R
PLATTEVILLE    CLOUDY    42  29  59 E8        30.40F
$$

WIZ056-057-062-063-064-067-068-211100-
SOUTH CENTRAL WISCONSIN

CITY           SKY/WX    TMP DP  RH WIND       PRES   REMARKS
REEDSBURG      FAIR      30  28  93 CALM      30.42F
BARABOO/DELLS  FAIR      30  21  67 CALM      30.42S
LONE ROCK      FAIR      34  31  88 CALM      30.42F
MINERAL POINT  FAIR      43  25  49 SE5       30.41S
MADISON        FAIR      32  26  78 CALM      30.42F
MIDDLETON      FAIR      34  31  90 CALM      30.42F
WATERTOWN      FAIR      30  24  80 CALM      30.42F
MONROE         FAIR      43  19  39 SE5       30.40F
JANESVILLE     FAIR      36  32  87 CALM      30.42F
$$

WIZ051-052-058>065-066-070>072-211100-
SOUTHEAST WISCONSIN

CITY           SKY/WX    TMP DP  RH WIND       PRES   REMARKS
MILWAUKEE      FAIR      32  23  69 E3        30.44S
WAUKESHA       FAIR      30  21  69 CALM      30.44F
MILWAUKEE/TIMM FAIR      32  21  64 CALM      30.45S
RACINE         FAIR      31  23  72 CALM      30.45S
BURLINGTON     FAIR      30  25  81 CALM      30.43F
KENOSHA        FAIR      33  23  66 CALM      30.43F
FOND DU LAC    FAIR      30  23  75 SE3       30.43S
SHEBOYGAN      FAIR      31  28  89 CALM      30.44S
WEST BEND      FAIR      30  27  86 CALM      30.43S
JUNEAU         FAIR      35  26  70 E3        30.44S
$$

LSZ147-162-211100-
LAKE SUPERIOR

STATION/POSITION TIME  TEMP    WIND        PRES    WAVE
                       AIR SEA DIR/SP/G            HT/PER
                 (UTC) (F)     (DEG/KT/KT) (MB)    (FT/S)
DEVILS ISLAND    1000   40     240/ 11/ 12 1030.2R
SAXON HARBOR     0940   28     190/  4/  5 1028.8F
$$

LMZ867-665-643>646-211100-
LAKE MICHIGAN

STATION/POSITION TIME  TEMP    WIND        PRES    WAVE
                       AIR SEA DIR/SP/G            HT/PER
                 (UTC) (F)     (DEG/KT/KT) (MB)    (FT/S)
NORTHPORT PIER   0940   43                 1029.1F
KEWAUNEE LAKESHO 0942   31     300/  3/  4 1029.6F
SHEBOYGAN LAKESH 1000   39     230/  2/  2 1031.3S
PORT WASHINGTON  0940   34     260/  3/  3 1031.8R
MILWAUKEE LAKESH 0950   35      10/  1/  2   N/A
KENOSHA   LAKESH 1000   36                 1030.5
$$

TC  - TEMPERATURE IN CELSIUS
VSB - VISIBILITY IN STATUTE MILES
WCI - WIND CHILL INDEX
HX  - HEAT INDEX





USA.gov is the U.S. government's official web portal to all federal, state and local government web resources and services.